Preview of NWS' New Version of Forecast
This preview is not operational and should not be used for support decisions.

Regional Weather Roundup (RWR)

Issued by Philadelphia/Mt Holly (PHI)

                            
000
ASUS41 KPHI 181612
RWRPHI

REGIONAL WEATHER ROUNDUP
NATIONAL WEATHER SERVICE MOUNT HOLLY NJ
1100 AM EST FRI JAN 18 2019

NOTE:  "FAIR" INDICATES FEW OR NO CLOUDS BELOW 12,000 FEET WITH NO
SIGNIFICANT WEATHER AND/OR OBSTRUCTIONS TO VISIBILITY.

 * = STATION DOES NOT REPORT PRECIPITATION (E.G. RAIN, SNOW, ETC.) 
        OR FOG.

NJZ015>026-181700-
SOUTHERN NEW JERSEY
  
CITY           SKY/WX    TMP DP  RH WIND       PRES   REMARKS
POMONA         CLOUDY    36  36 100 CALM      30.11S FOG              
WILDWOOD*      CLOUDY    39  38  96 NE3       30.12R                  
MILLVILLE      CLOUDY    34  33  96 CALM      30.11S FOG              
WRIGHTSTOWN    CLOUDY    34  33  95 CALM      30.08F                  
MOUNT HOLLY    CLOUDY    33  30  88 CALM      30.12S FOG              
TRENTON        LGT SNOW  33  30  88 CALM      30.11S FOG              

$$
NJZ001>014-181700-
NORTHERN NEW JERSEY
  
CITY           SKY/WX    TMP DP  RH WIND       PRES   REMARKS
SUSSEX         CLOUDY    28  24  85 CALM      30.09S                  
ANDOVER*         N/A     28  23  81 CALM      30.09S                  
MORRISTOWN     CLOUDY    32  30  93 CALM      30.12S                  
NEWARK         CLOUDY    34  30  85 N3        30.11F                  
TETERBORO      CLOUDY    35  30  82 VRB5      30.11S WCI  31          
CALDWELL       CLOUDY    32  29  88 CALM      30.12S FOG              
SOMERVILLE     CLOUDY    32  28  85 CALM      30.10S                  
ALLAIRE*       CLOUDY    36  36 100 NE3       30.11F                  
TOMS RIVER*    CLOUDY    39  38  96 CALM      30.11F                  

$$
PAZ043-044-047-054-055-060>062-066>071-181700-
EASTERN PENNSYLVANIA
  
CITY           SKY/WX    TMP DP  RH WIND       PRES   REMARKS
PHILADELPHIA   CLOUDY    33  30  88 VRB3      30.13R FOG              
NORTH PHILA    CLOUDY    34  30  85 CALM      30.13S FOG              
BLUE BELL*     CLOUDY    30  30 100 CALM      30.12S VSB 3/4          
DOYLESTOWN     CLOUDY    30  27  88 CALM      30.09S FOG              
QUAKERTOWN*    CLOUDY    30  28  93 CALM      30.10S FOG              
PERKASIE*      CLOUDY    28  28 100 CALM      30.10F FOG              
POTTSTOWN      MIX PCPN  29  28  96 CALM      30.13R FOG              
LANCASTER      CLOUDY    32  30  92 CALM      30.11R FOG              
COATESVILLE    FOG       30  30 100 CALM      30.10S VSB 1/4          
READING        CLOUDY    30  29  96 CALM      30.10S                  
ALLENTOWN      CLOUDY    31  25  78 CALM      30.11R                  
MOUNT POCONO   CLOUDY    28  28 100 SW9       30.00R WCI  19          
HAZLETON       LGT SNOW N/A N/A N/A CALM      30.05S                  
LEHIGHTON      LGT SNOW  30  28  93 CALM      30.10F                  
WILKES BARRE   LGT SNOW  29  27  92 VRB5      30.05S FOG     WCI  24  

$$
DEZALL-MDZ008-012-015-019-020-181700-
DELAWARE AND EASTERN MARYLAND
  
CITY           SKY/WX    TMP DP  RH WIND       PRES   REMARKS
WILMINGTON     CLOUDY    35  32  88 CALM      30.13S FOG              
DOVER          CLOUDY    36  36  99 NW3       30.11S                  
GEORGETOWN     CLOUDY    41  37  86 CALM      30.12R FOG              
EASTON         PTSUNNY   37  36  93 CALM      30.16R FOG              
ABERDEEN       CLOUDY    32  32 100 CALM      30.14R FOG              
PATUXENT       CLOUDY    40  36  86 NW8       30.13  WCI  34          
OCEAN CITY     CLOUDY    45  38  76 NW8       30.11R                  
WALLOPS ISLAND FAIR      46  36  68 NW9       30.11R                  
SALISBURY      CLOUDY    43  38  82 W8        30.11R                  

$$
PAZ001-021-NYZ056-072-MDZ011-DCZ001-181700-
OTHER NEARBY LOCATIONS
  
CITY           SKY/WX    TMP DP  RH WIND       PRES   REMARKS
HARRISBURG     CLOUDY    30  26  85 CALM      30.11R FOG              
STATE COLLEGE  CLOUDY    30  28  93 W6        30.05R FOG     WCI  24  
WILLIAMSPORT   CLOUDY    30  25  81 NE3       30.08S                  
BINGHAMTON     CLOUDY    25  23  92 SW9       29.98R WCI  15          
NEW YORK CITY  CLOUDY    36  32  85 MISG      30.13                   
BALTIMORE      FOG       34  33  96 CALM      30.12R VSB 1            
WASHINGTON DC  CLOUDY    38  33  82 NW5       30.14R HAZE    WCI  34  

$$